This is the latest recevied weather packets stored in our database for station/object EW1958. If no packets are shown the sender has not sent any weather packets the latest 10 day(s).
| Time | Temp. | Humidity | Pressure | Rain* | Wind** | Luminosity | Snow |
|---|---|---|---|---|---|---|---|
| 1777828564 | 21.67° C | 61% | 1017 hPa | 0 mm | - | - | - |
| 1777828263 | 21.11° C | 62% | 1017 hPa | 0 mm | - | - | - |
| 1777827962 | 21.11° C | 61% | 1017 hPa | 0 mm | - | - | - |
| 1777827662 | 20.56° C | 62% | 1017 hPa | 0 mm | - | - | - |
| 1777827362 | 20° C | 64% | 1017 hPa | 0 mm | - | - | - |
| 1777827059 | 19.44° C | 66% | 1017 hPa | 0 mm | - | - | - |
| 1777826757 | 18.89° C | 64% | 1017 hPa | 0 mm | - | - | - |
| 1777826457 | 18.33° C | 69% | 1017 hPa | 0 mm | - | - | - |
| 1777826287 | 17.78° C | 69% | 1017 hPa | 0 mm | - | - | - |
| 1777825985 | 17.22° C | 73% | 1017 hPa | 0 mm | - | - | - |
| 1777825557 | 16.67° C | 75% | 1017.1 hPa | 0 mm | - | - | - |
| 1777825257 | 16.11° C | 77% | 1017 hPa | 0 mm | - | - | - |
| 1777825110 | 15.56° C | 80% | 1017.1 hPa | 0 mm | - | - | - |
| 1777824658 | 15° C | 81% | 1017.1 hPa | 0 mm | - | - | - |
| 1777824490 | 14.44° C | 83% | 1017.1 hPa | 0 mm | - | - | - |
| 1777824053 | 14.44° C | 83% | 1017.1 hPa | 0 mm | - | - | - |
| 1777823749 | 13.89° C | 83% | 1017.2 hPa | 0 mm | - | - | - |
| 1777823271 | 13.33° C | 86% | 1017.2 hPa | 0 mm | - | - | - |
| 1777822843 | 13.33° C | 86% | 1017.3 hPa | 0 mm | - | - | - |
| 1777822541 | 12.78° C | 87% | 1017.3 hPa | 0 mm | - | - | - |
| 1777822242 | 12.78° C | 89% | 1017.3 hPa | 0 mm | - | - | - |
| 1777821941 | 12.22° C | 92% | 1017.3 hPa | 0 mm | - | - | - |
| 1777821642 | 11.67° C | 93% | 1017.2 hPa | 0 mm | - | - | - |
| 1777821342 | 11.67° C | 94% | 1017.3 hPa | 0 mm | - | - | - |
| 1777821040 | 11.11° C | 94% | 1017.3 hPa | 0 mm | - | - | - |
* Rain latest hour (hover to see other rain measurements)
** Current wind speed in m/s (hover to see current wind gust speed)